Regional Weather Roundup
Issued by NWS

Home | Current Version | Previous Version | Graphics & Text | Print | Product List | Glossary On
Versions: 1 2 3 4 5 6 7 8 9 10 11 12 13 14 15 16 17 18 19 20 21 22 23 24 25 26 27 28 29 30 31 32 33 34 35 36 37 38 39 40 41 42 43 44 45 46 47 48 49 50
000
ASUS43 KTOP 231559
RWRKS

WEATHER ROUNDUP FOR KANSAS
NATIONAL WEATHER SERVICE GOODLAND KS
1100 AM CDT WED JUL 23 2014

NOTE:  "FAIR" INDICATES FEW OR NO CLOUDS BELOW 12,000 FEET WITH NO
SIGNIFICANT WEATHER AND/OR OBSTRUCTIONS TO VISIBILITY.

KSZ001>006-013>018-027>032-041>047-231700-
NORTHWEST KANSAS

CITY           SKY/WX    TMP DP  RH WIND       PRES   REMARKS
GOODLAND       PTSUNNY   73  67  81 NE25G32   30.38R
HAYS           MOSUNNY   79  64  61 E13       30.25S
HILL CITY      CLOUDY    76  65  68 NE10      30.31R
RUSSELL        MOSUNNY   81  67  62 E7        30.22R
$$

KSZ061>065-074>080-084>089-231700-
SOUTHWEST KANSAS

CITY           SKY/WX    TMP DP  RH WIND       PRES   REMARKS
DODGE CITY     SUNNY     83  70  64 SE8       30.24R
ELKHART          N/A     85  64  49 SW8         N/A
GARDEN CITY    SUNNY     83  67  58 E8        30.25R
GREAT BEND     MOSUNNY   79  68  69 NE10      30.22R
LIBERAL        SUNNY     88  66  48 S9        30.24F
$$

KSZ066>073-081>083-090>101-231700-
SOUTHEAST KANSAS

CITY           SKY/WX    TMP DP  RH WIND       PRES   REMARKS
CHANUTE        MOSUNNY   86  74  67 N8        30.12R
COFFEYVILLE    MOSUNNY   88  78  72 VRB3      30.08F HX 101
HUTCHINSON     CLOUDY    77  66  68 E9        30.18R
MEDICINE LODGE   N/A     85  76  74 NE12G22   30.16S
NEWTON         CLOUDY    72  63  73 E9        30.19F
PARSONS        PTSUNNY   88  77  69 N5        30.10F HX 100
WICHITA INTL   CLOUDY    78  68  71 NE15      30.17S
WICHITA JABRA  PTSUNNY   76  67  73 E9        30.16F
WINFIELD       MOSUNNY   88  77  69 N16       30.16R HX 100
$$

KSZ007>012-019>026-033>040-048>060-102>105-231700-
NORTHEAST KANSAS

CITY           SKY/WX    TMP DP  RH WIND       PRES   REMARKS
CONCORDIA      MOSUNNY   78  65  63 NE13      30.21R
EMPORIA        TSTM      70  68  93 NE14      30.18F FOG
LAWRENCE       MOSUNNY   84  68  58 NE5       30.16R
MANHATTAN      CLOUDY    77  64  64 E14       30.16F
OLATHE IND     SUNNY     84  67  56 N12       30.16R
OLATHE EXE     SUNNY     82  66  58 N10       30.16R
SALINA         CLOUDY    75  65  70 NW21G26   30.18R
TOPEKA BILLARD PTSUNNY   82  67  60 NW7       30.18R
TOPEKA FORBES  CLOUDY    81  66  60 NW8       30.19R
$$


USA.gov is the U.S. government's official web portal to all federal, state and local government web resources and services.